User: anonymous   Login
Location: Betra
(48.4113°N, 8.6634°E)
Time: 09:03:08
(UTC+00:00)
Language:

NPP - Orbit

View from above orbital plane
View from above orbital plane
View from above satellite
View from above satellite

Ground track
Ground track

The orbit data is extracted from the following two-line orbital elements,

1 37849U 11061A   24201.18373748  .00000253  00000-0  14094-3 0  9991
2 37849  98.7223 138.6839 0001492 120.2431 239.8893 14.19531684659409
Epoch (UTC): 19 July 2024 04:24:34
Eccentricity: 0.0001492
inclination: 98.7223°
perigee height: 826 km
apogee height: 828 km
right ascension of ascending node: 138.6839°
argument of perigee: 120.2431°
revolutions per day: 14.19531684
mean anomaly at epoch: 239.8893°
orbit number at epoch: 65940

The dashed part of the orbit path shows where the satellite is in the earth's shadow,  

DLR